Regional Weather Roundup
Issued by NWS Northern Indiana

Home | Current Version | Previous Version | Graphics & Text | Print | Product List | Glossary On
Versions: 1 2 3 4 5 6 7 8 9 10 11 12 13 14 15 16 17 18 19 20 21 22 23 24 25 26 27 28 29 30 31 32 33 34 35 36 37 38 39 40 41 42 43 44 45 46 47 48 49 50
000
ASUS43 KIWX 280710
RWRIWX

KIWX WEATHER ROUNDUP
NATIONAL WEATHER SERVICE NORTHERN INDIANA
300 AM EDT THU MAY 28 2015

NOTE: "FAIR" INDICATES FEW OR NO CLOUDS BELOW 12,000 FEET WITH NO
SIGNIFICANT WEATHER AND/OR OBSTRUCTIONS TO VISIBILITY.

* THESE STATIONS ARE NOT UNDER NWS QUALITY CONTROL. THEY ALSO MAY NOT
  REPORT WEATHER SUCH AS PRECIPITATION OR FOG.

INZ001>027-280800-
NORTHERN INDIANA

CITY           SKY/WX    TMP DP  RH WIND       PRES   REMARKS
GARY*          CLEAR     56  55  97 CALM      30.17S
VALPARAISO     CLEAR     56  53  90 CALM      30.18R
MICHIGAN CITY* CLEAR     52  52 100 CALM      30.17S FOG
LAPORTE*       CLEAR     55  55 100 CALM      30.18R
KNOX*          CLEAR     54  54 100 CALM      30.17R
SOUTH BEND     CLEAR     55  51  86 CALM      30.18R
GOSHEN         CLEAR     55  53  93 CALM      30.16S
MONTICELLO*    CLEAR     54  54 100 N5        30.16F
LOGANSPORT*    CLEAR     55  50  82 N3        30.18R
ROCHESTER*     CLEAR     55  55 100 CALM      30.18R
WARSAW*        CLEAR     54  52  94 CALM      30.17R FOG
ANGOLA*        CLEAR     54  54 100 CALM      30.16R
FORT WAYNE     PTCLDY    56  54  93 CALM      30.18R
HUNTINGTON*    CLEAR     56  55  97 CALM      30.17R
PERU/GRISSOM   CLEAR     56  55  95 NE1       30.16R
MARION*        PTCLDY    60  57  88 NW3       30.18R

$$
INZ028>050-280800-
CENTRAL INDIANA

CITY           SKY/WX    TMP DP  RH WIND       PRES   REMARKS
LAFAYETTE      CLEAR     56  54  93 N3        30.17R
KOKOMO*        CLEAR     55  54  94 CALM      30.18R
MUNCIE*        PTCLDY    63  58  83 CALM      30.16S
INDIANAPOLIS   PTCLDY    64  57  78 NE5       30.15R

$$
MIZ043>046-050>051-056>058-064>065-071>073-077>080-280800-
SOUTHWEST LOWER MICHIGAN

CITY           SKY/WX    TMP DP  RH WIND       PRES   REMARKS
BATTLE CREEK   CLEAR     56  53  90 SW3       30.17R
BENTON HARBOR  CLEAR     51  51 100 CALM      30.16R FOG
HOLLAND        CLEAR     54  52  93 S5        30.16R
GRAND RAPIDS   CLEAR     55  54  96 S5        30.15R
KALAMAZOO      FOG       53  51  93 CALM      30.17R VSB 3/4

$$
OHZ001>008-015>018-024>025-280800-
NORTHWEST OHIO

CITY           SKY/WX    TMP DP  RH WIND       PRES   REMARKS
DEFIANCE       CLEAR     57  55  93 CALM      30.17R
FINDLAY        FOG       62  60  93 CALM      30.15R VSB 1/2
TOLEDO EXPRESS CLEAR     57  56  96 CALM      30.15R
TOLEDO METCALF CLEAR     62  57  83 CALM      30.16R
LIMA           MOCLDY    61  59  93 CALM      30.16R

$$
AND FOR LAKE MICHIGAN COASTAL AND OPEN LAKE BUOY OBSERVATIONS

STATION/POSITION TEMP    WIND        PRES    VSBY  WAVE
                 AIR SEA DIR/SP/G                  HT/PER
                 (F)     (DEG/KT/KT) (MB)    (MI)  (FT/S)
CALUMET HARBOR    62     200/  3/  5   N/A
MICHIGAN CITY     60     130/  6/  7   N/A
BURNS HARBOR      60     190/  5/  6 1022.0R
SAINT JOSEPH      57      CALM  /  2 1021.7S
SOUTH LAKE BUOY   43 38  210/  8/ 10 1021.3R         0
4 MI NW BRIDGMAN  56 55  160/  2/  2   N/A           0
MICHIGAN CITY     56 53  200/  2/  4   N/A           0

$$
&&


USA.gov is the U.S. government's official web portal to all federal, state and local government web resources and services.